Wahoo, NE

9:04 PM CDT on April 25, 2018 (GMT -0500)
Wahoo Municipal

Weather History for KAHQ - March, 2012

Change the Weather History Date:

Thursday, March 8, 2012

  Actual Average Record
Temperature  
Mean Temperature 38 °F -  
Max Temperature 52 °F 47 °F 77 °F (1977)
Min Temperature 24 °F 23 °F 3 °F (1967)
Degree Days  
Heating Degree Days 27    
Moisture  
Dew Point 17 °F    
Average Humidity 49    
Maximum Humidity 84    
Minimum Humidity 17    
Precipitation  
Precipitation 0.00 in - - ()
Sea Level Pressure  
Sea Level Pressure 30.31 in    
Wind  
Wind Speed 13 mph (NW)    
Max Wind Speed 20 mph    
Max Gust Speed 26 mph    
Visibility 10 miles    
Events      
Averages and records for this station are not official NWS values.
T = Trace of Precipitation, MM = Missing Value Source: NWS Daily Summary

Daily Weather History Graph

Daily Weather History Graph

Search for Another Location

Airport or City:

Astronomy

Mar. 08, 2012 Rise Set
Actual Time 6:48 AM CST 6:25 PM CST
Civil Twilight 6:21 AM CST 6:53 PM CST
Nautical Twilight 5:49 AM CST 7:25 PM CST
Astronomical Twilight 5:17 AM CST 7:57 PM CST
Moon 7:15 PM CST (3/8) 6:32 AM CST (3/8)
Length of Visible Light 12h 32m
Length of Day
11h 37m
Full, 100% of the Moon is Illuminated
Mar 8
Full
Mar 14
Last Quarter
Mar 22
New
Mar 30
First Quarter
Apr 6
Full

Hourly Weather History & Observations

Time (CST) Temp. Windchill Dew Point Humidity Pressure Visibility Wind Dir Wind Speed Gust Speed Precip Events Conditions
12:15 AM 31.8 °F 21.8 °F 23.5 °F 71% 30.12 in 10.0 mi NNW 13.8 mph - N/A   Scattered Clouds
12:35 AM 32.0 °F 21.6 °F 23.0 °F 69% 30.15 in 10.0 mi NW 15.0 mph 19.6 mph N/A   Scattered Clouds
12:55 AM 32.0 °F 21.6 °F 22.8 °F 69% 30.17 in 10.0 mi NNW 15.0 mph 20.7 mph N/A   Mostly Cloudy
1:15 AM 32.0 °F 21.6 °F 22.1 °F 67% 30.18 in 10.0 mi NNW 15.0 mph - N/A   Mostly Cloudy
1:35 AM 31.8 °F 21.0 °F 21.6 °F 66% 30.16 in 10.0 mi NNW 16.1 mph 26.5 mph N/A   Scattered Clouds
1:55 AM 30.7 °F 19.2 °F 21.2 °F 68% 30.15 in 10.0 mi NNW 17.3 mph - N/A   Clear
2:35 AM 29.3 °F 17.0 °F 21.2 °F 72% 30.15 in 10.0 mi NNW 18.4 mph 25.3 mph N/A   Clear
2:55 AM 28.4 °F 18.5 °F 21.2 °F 74% 30.19 in 10.0 mi NNW 11.5 mph - N/A   Clear
3:15 AM 28.0 °F 18.1 °F 21.0 °F 75% 30.19 in 10.0 mi NNW 11.5 mph 18.4 mph N/A   Clear
3:35 AM 27.1 °F 19.7 °F 20.8 °F 77% 30.22 in 10.0 mi NNW 6.9 mph - N/A   Clear
3:55 AM 26.2 °F 18.6 °F 20.8 °F 80% 30.23 in 10.0 mi NW 6.9 mph - N/A   Clear
4:15 AM 26.6 °F 19.1 °F 21.2 °F 80% 30.25 in 10.0 mi WNW 6.9 mph - N/A   Clear
4:35 AM 26.4 °F 17.3 °F 21.0 °F 80% 30.26 in 10.0 mi NW 9.2 mph - N/A   Clear
4:55 AM 25.7 °F 18.0 °F 20.8 °F 82% 30.26 in 10.0 mi NW 6.9 mph - N/A   Clear
5:15 AM 25.9 °F 17.4 °F 20.8 °F 81% 30.27 in 10.0 mi NW 8.1 mph - N/A   Clear
5:35 AM 25.0 °F 17.1 °F 20.5 °F 83% 30.27 in 10.0 mi NW 6.9 mph - N/A   Clear
6:15 AM 24.8 °F 16.1 °F 20.3 °F 83% 30.28 in 10.0 mi NW 8.1 mph - N/A   Clear
6:35 AM 25.5 °F 16.9 °F 21.0 °F 83% 30.29 in 10.0 mi WNW 8.1 mph - N/A   Clear
6:55 AM 25.3 °F 16.0 °F 21.0 °F 84% 30.30 in 10.0 mi WNW 9.2 mph - N/A   Clear
7:15 AM 25.7 °F 15.7 °F 21.6 °F 84% 30.30 in 10.0 mi WNW 10.4 mph - N/A   Clear
7:35 AM 27.1 °F 16.9 °F 21.7 °F 80% 30.31 in 10.0 mi WNW 11.5 mph 16.1 mph N/A   Clear
7:55 AM 30.2 °F 20.2 °F 22.8 °F 74% 30.32 in 10.0 mi NW 12.7 mph - N/A   Clear
8:15 AM 31.8 °F 21.8 °F 22.8 °F 69% 30.33 in 10.0 mi NW 13.8 mph - N/A   Clear
8:35 AM 33.3 °F 23.7 °F 23.0 °F 66% 30.34 in 10.0 mi NW 13.8 mph 20.7 mph N/A   Clear
8:55 AM 35.6 °F 26.6 °F 23.0 °F 60% 30.34 in 10.0 mi NW 13.8 mph - N/A   Clear
9:15 AM 38.1 °F 30.7 °F 22.6 °F 54% 30.34 in 10.0 mi NW 11.5 mph - N/A   Clear
9:35 AM 39.6 °F 32.1 °F 21.9 °F 49% 30.35 in 10.0 mi NW 12.7 mph - N/A   Clear
9:55 AM 41.5 °F 33.8 °F 20.8 °F 44% 30.36 in 10.0 mi NW 15.0 mph - N/A   Clear
10:15 AM 43.0 °F - 19.9 °F 40% 30.36 in 10.0 mi North - - N/A   Clear
10:35 AM 44.6 °F 37.4 °F 19.0 °F 36% 30.36 in 10.0 mi NNW 16.1 mph 21.9 mph N/A   Clear
11:15 AM 45.7 °F 38.3 °F 19.0 °F 35% 30.36 in 10.0 mi NNW 18.4 mph 24.2 mph N/A   Clear
11:55 AM 46.6 °F - 17.1 °F 31% 30.36 in 10.0 mi NNW 18.4 mph 24.2 mph N/A   Clear
12:15 PM 47.7 °F - 16.0 °F 28% 30.36 in 10.0 mi NNW 19.6 mph - N/A   Clear
12:35 PM 48.4 °F - 15.3 °F 27% 30.35 in 10.0 mi NNW 16.1 mph 25.3 mph N/A   Clear
12:55 PM 48.7 °F - 12.7 °F 24% 30.34 in 10.0 mi North 18.4 mph 25.3 mph N/A   Clear
1:15 PM 49.5 °F - 12.0 °F 22% 30.34 in 10.0 mi NNW 19.6 mph 23.0 mph N/A   Clear
1:35 PM 50.7 °F - 11.8 °F 21% 30.33 in 10.0 mi North 18.4 mph 23.0 mph N/A   Clear
2:15 PM 51.3 °F - 10.0 °F 19% 30.33 in 10.0 mi NNW 17.3 mph 24.2 mph N/A   Clear
2:35 PM 51.4 °F - 11.3 °F 20% 30.33 in 10.0 mi NNW 18.4 mph 23.0 mph N/A   Clear
2:55 PM 51.8 °F - 11.1 °F 20% 30.34 in 10.0 mi NNW 13.8 mph 23.0 mph N/A   Clear
3:15 PM 51.8 °F - 10.2 °F 19% 30.34 in 10.0 mi NNW 15.0 mph - N/A   Clear
3:35 PM 52.0 °F - 11.1 °F 20% 30.34 in 10.0 mi NW 17.3 mph 21.9 mph N/A   Clear
3:55 PM 51.6 °F - 9.3 °F 18% 30.35 in 10.0 mi NNW 13.8 mph - N/A   Clear
4:15 PM 52.0 °F - 8.2 °F 17% 30.35 in 10.0 mi WNW 11.5 mph 19.6 mph N/A   Clear
4:35 PM 51.6 °F - 8.2 °F 17% 30.36 in 10.0 mi WNW 10.4 mph - N/A   Clear
4:55 PM 51.6 °F - 7.9 °F 17% 30.35 in 10.0 mi NW 13.8 mph - N/A   Clear
5:15 PM 50.9 °F - 8.6 °F 18% 30.35 in 10.0 mi WNW 11.5 mph - N/A   Clear
5:35 PM 50.0 °F - 9.5 °F 20% 30.36 in 10.0 mi West 12.7 mph - N/A   Clear
5:55 PM 48.6 °F - 12.7 °F 24% 30.36 in 10.0 mi West 8.1 mph - N/A   Clear
6:15 PM 45.9 °F 41.7 °F 12.9 °F 27% 30.37 in 10.0 mi West 8.1 mph - N/A   Clear
6:35 PM 42.8 °F 38.6 °F 12.9 °F 30% 30.37 in 10.0 mi West 6.9 mph - N/A   Clear
6:55 PM 42.8 °F 39.3 °F 12.4 °F 29% 30.37 in 10.0 mi WSW 5.8 mph - N/A   Clear
7:15 PM 38.5 °F 34.1 °F 13.5 °F 36% 30.38 in 10.0 mi WSW 5.8 mph - N/A   Clear
7:35 PM 39.7 °F 34.9 °F 15.4 °F 37% 30.39 in 10.0 mi WSW 6.9 mph - N/A   Clear
7:55 PM 39.4 °F 35.2 °F 14.7 °F 37% 30.39 in 10.0 mi WSW 5.8 mph - N/A   Clear
8:15 PM 37.9 °F 32.7 °F 18.0 °F 45% 30.39 in 10.0 mi WSW 6.9 mph - N/A   Clear
8:35 PM 37.6 °F 33.1 °F 15.3 °F 40% 30.39 in 10.0 mi WSW 5.8 mph - N/A   Clear
8:55 PM 37.2 °F 31.9 °F 16.9 °F 44% 30.39 in 10.0 mi WSW 6.9 mph - N/A   Clear
9:15 PM 38.5 °F 32.7 °F 15.4 °F 39% 30.40 in 10.0 mi WSW 8.1 mph - N/A   Clear
9:35 PM 37.6 °F 32.3 °F 16.2 °F 42% 30.40 in 10.0 mi WSW 6.9 mph - N/A   Clear
9:55 PM 36.5 °F 31.0 °F 17.1 °F 45% 30.40 in 10.0 mi WSW 6.9 mph - N/A   Clear
10:15 PM 36.5 °F 30.3 °F 17.2 °F 46% 30.40 in 10.0 mi WSW 8.1 mph - N/A   Clear
10:35 PM 37.0 °F 30.4 °F 16.0 °F 42% 30.40 in 10.0 mi WSW 9.2 mph - N/A   Clear
10:55 PM 37.4 °F 30.3 °F 15.8 °F 41% 30.40 in 10.0 mi WSW 10.4 mph - N/A   Clear
11:15 PM 37.6 °F 30.5 °F 16.0 °F 41% 30.40 in 10.0 mi WSW 10.4 mph - N/A   Clear
11:35 PM 37.4 °F 29.8 °F 15.8 °F 41% 30.40 in 10.0 mi WSW 11.5 mph - N/A   Clear
11:55 PM 38.3 °F 30.1 °F 15.6 °F 40% 30.40 in 10.0 mi WSW 13.8 mph - N/A   Clear